sat.trackr.live / text

‹ back to catalog

LEMUR-2-KRISH

NORAD 64561 · 2025-135AK

PAYLOAD ACTIVE UNKNOWN

§ Identity

Operator
Country
US
Launch date
2025-06-23
Launch site
AFWTR
Launch vehicle
Mass (kg)
RCS (m²)

Purposes: earth_obs

External: N2YO · Heavens-Above · Gunter

§ Orbital elements

Epoch: 2026-05-24T19:10:56.137440Z

Period
96.26 min
Inclination
97.7713°
Eccentricity
0.0001740
Mean motion
14.95949019 rev/d
Perigee alt
578.2 km
Apogee alt
580.6 km
Semi-major
6,957.6 km
B*
4.2816e-4
RAAN
259.8458°
Arg perigee
106.4865°
Mean anomaly
253.6548°
Rev number
5,042

§ Raw data

LEMUR-2-KRISH1 64561U 25135AK  26144.79926085  .00004739  00000+0  42816-3 0  99972 64561  97.7713 259.8458 0001740 106.4865 253.6548 14.95949019 50426

JSON: /api/v1/satellites/64561 · /tle

For live sub-satellite position, see the globe view (requires WebGL).

§ Visibility from observer

Set your observer location to see the next 7 days of passes ≥ 10°. The values pass through the URL so the page stays shareable.

No JS? Fill the form by hand. The geolocation button needs JavaScript.